• In Deutschland
  • Länderverzeichnis
  • Für 7 Tage
  • Wassertemperatur
  • Satellitenkarten
  • Wetterkarte
  • Widgets
  • user-avatar
    Anmelden

    Stündliche Wetter Landau in der Pfalz

    Heute, 24 Februar, Samstag

    Zeit Temperatur Niederschläge Wind Luftdruck Luftfeuchtigkeit
    00:00 -5°C° 0 mm 5 m/S 747 mmHg 53%
    01:00 -5°C° 0 mm 5 m/S 747 mmHg 52%
    02:00 -5°C° 0 mm 5 m/S 747 mmHg 52%
    03:00 -5°C° 0 mm 5 m/S 747 mmHg 51%
    04:00 -5°C° 0 mm 5 m/S 747 mmHg 50%
    05:00 -5°C° 0 mm 5 m/S 748 mmHg 50%
    06:00 -5°C° 0 mm 6 m/S 748 mmHg 49%
    07:00 -5°C° 0 mm 6 m/S 748 mmHg 48%
    08:00 -5°C° 0 mm 6 m/S 748 mmHg 43%
    09:00 -4°C° 0 mm 7 m/S 748 mmHg 38%
    10:00 -3°C° 0 mm 7 m/S 749 mmHg 33%
    11:00 -2°C° 0 mm 7 m/S 749 mmHg 31%
    12:00 0°C° 0 mm 7 m/S 749 mmHg 30%
    13:00 +1°C° 0 mm 8 m/S 748 mmHg 28%
    14:00 +1°C° 0 mm 8 m/S 748 mmHg 32%
    15:00 +2°C° 0 mm 7 m/S 748 mmHg 36%
    16:00 +2°C° 0 mm 7 m/S 748 mmHg 39%
    17:00 -1°C° 0 mm 7 m/S 749 mmHg 42%
    18:00 -2°C° 0 mm 7 m/S 749 mmHg 45%
    19:00 -3°C° 0 mm 6 m/S 750 mmHg 47%
    20:00 -4°C° 0 mm 6 m/S 750 mmHg 46%
    21:00 -4°C° 0 mm 6 m/S 750 mmHg 45%
    22:00 -5°C° 0 mm 6 m/S 750 mmHg 44%
    23:00 -5°C° 0 mm 6 m/S 751 mmHg 45%

    Morgen, 25 Februar, Sonntag

    Zeit Temperatur Niederschläge Wind Luftdruck Luftfeuchtigkeit
    00:00 -6°C° 0 mm 6 m/S 751 mmHg 45%
    01:00 -6°C° 0 mm 6 m/S 751 mmHg 46%
    02:00 -6°C° 0 mm 6 m/S 751 mmHg 46%
    03:00 -8°C° 0 mm 6 m/S 751 mmHg 47%
    04:00 -8°C° 0 mm 6 m/S 751 mmHg 47%
    05:00 -8°C° 0 mm 6 m/S 751 mmHg 47%
    06:00 -8°C° 0 mm 6 m/S 751 mmHg 47%
    07:00 -8°C° 0 mm 6 m/S 751 mmHg 47%
    08:00 -8°C° 0 mm 6 m/S 752 mmHg 43%
    09:00 -8°C° 0 mm 7 m/S 752 mmHg 39%
    10:00 -7°C° 0 mm 7 m/S 752 mmHg 35%
    11:00 -6°C° 0 mm 7 m/S 752 mmHg 31%
    12:00 -6°C° 0 mm 7 m/S 752 mmHg 28%
    13:00 -4°C° 0 mm 7 m/S 752 mmHg 24%
    14:00 -4°C° 0 mm 7 m/S 751 mmHg 24%
    15:00 -4°C° 0 mm 7 m/S 751 mmHg 24%
    16:00 -4°C° 0 mm 6 m/S 751 mmHg 24%
    17:00 -5°C° 0 mm 6 m/S 751 mmHg 26%
    18:00 -6°C° 0 mm 6 m/S 751 mmHg 28%
    19:00 -6°C° 0 mm 5 m/S 752 mmHg 31%
    20:00 -7°C° 0 mm 5 m/S 752 mmHg 31%
    21:00 -7°C° 0 mm 5 m/S 752 mmHg 32%
    22:00 -8°C° 0 mm 6 m/S 752 mmHg 32%
    23:00 -8°C° 0 mm 5 m/S 752 mmHg 33%

    übermorgen, 26 Februar, Montag

    Zeit Temperatur Niederschläge Wind Luftdruck Luftfeuchtigkeit
    00:00 -8°C° 0 mm 5 m/S 752 mmHg 34%
    01:00 -8°C° 0 mm 5 m/S 752 mmHg 34%
    02:00 -8°C° 0 mm 5 m/S 752 mmHg 36%
    03:00 -10°C° 0 mm 5 m/S 752 mmHg 37%
    04:00 -10°C° 0 mm 5 m/S 752 mmHg 38%
    05:00 -10°C° 0 mm 5 m/S 752 mmHg 39%
    06:00 -11°C° 0 mm 5 m/S 752 mmHg 40%
    07:00 -11°C° 0 mm 5 m/S 752 mmHg 41%
    08:00 -10°C° 0 mm 6 m/S 752 mmHg 39%
    09:00 -10°C° 0 mm 6 m/S 752 mmHg 38%
    10:00 -9°C° 0 mm 6 m/S 752 mmHg 36%
    11:00 -9°C° 0 mm 6 m/S 752 mmHg 34%
    12:00 -8°C° 0 mm 6 m/S 752 mmHg 32%
    13:00 -6°C° 0 mm 6 m/S 752 mmHg 29%
    14:00 -6°C° 0 mm 6 m/S 751 mmHg 29%
    15:00 -6°C° 0 mm 6 m/S 751 mmHg 29%
    16:00 -6°C° 0 mm 6 m/S 750 mmHg 29%
    17:00 -6°C° 0 mm 6 m/S 750 mmHg 31%
    18:00 -7°C° 0 mm 5 m/S 750 mmHg 34%
    19:00 -8°C° 0 mm 5 m/S 750 mmHg 37%
    20:00 -8°C° 0 mm 5 m/S 750 mmHg 38%
    21:00 -8°C° 0 mm 5 m/S 750 mmHg 39%
    22:00 -8°C° 0 mm 5 m/S 750 mmHg 40%
    23:00 -10°C° 0 mm 5 m/S 750 mmHg 41%

    27 Februar, Dienstag

    Zeit Temperatur Niederschläge Wind Luftdruck Luftfeuchtigkeit
    00:00 -10°C° 0 mm 5 m/S 750 mmHg 42%
    01:00 -9°C° 0 mm 4 m/S 749 mmHg 43%
    02:00 -10°C° 0 mm 4 m/S 749 mmHg 43%
    03:00 -10°C° 0 mm 4 m/S 749 mmHg 44%
    04:00 -10°C° 0 mm 4 m/S 748 mmHg 45%
    05:00 -10°C° 0 mm 4 m/S 748 mmHg 45%
    06:00 -11°C° 0 mm 4 m/S 748 mmHg 46%
    07:00 -11°C° 0 mm 4 m/S 748 mmHg 46%
    08:00 -10°C° 0 mm 4 m/S 748 mmHg 44%
    09:00 -10°C° 0 mm 4 m/S 748 mmHg 41%
    10:00 -10°C° 0 mm 5 m/S 748 mmHg 39%
    11:00 -8°C° 0 mm 4 m/S 747 mmHg 36%
    12:00 -8°C° 0 mm 4 m/S 747 mmHg 34%
    13:00 -7°C° 0 mm 4 m/S 747 mmHg 31%
    14:00 -7°C° 0 mm 4 m/S 746 mmHg 30%
    15:00 -5°C° 0 mm 4 m/S 746 mmHg 30%
    16:00 -5°C° 0 mm 4 m/S 746 mmHg 29%
    17:00 -6°C° 0 mm 3 m/S 746 mmHg 31%
    18:00 -6°C° 0 mm 3 m/S 746 mmHg 33%
    19:00 -7°C° 0 mm 3 m/S 746 mmHg 35%
    20:00 -7°C° 0 mm 3 m/S 746 mmHg 36%
    21:00 -8°C° 0 mm 3 m/S 746 mmHg 37%
    22:00 -8°C° 0 mm 3 m/S 746 mmHg 38%
    23:00 -8°C° 0 mm 3 m/S 746 mmHg 39%

    28 Februar, Mittwoch

    Zeit Temperatur Niederschläge Wind Luftdruck Luftfeuchtigkeit
    00:00 -8°C° 0 mm 3 m/S 746 mmHg 40%
    01:00 -9°C° 0 mm 3 m/S 746 mmHg 41%
    02:00 -8°C° 0 mm 2 m/S 746 mmHg 43%
    03:00 -8°C° 0 mm 2 m/S 746 mmHg 44%
    04:00 -8°C° 0 mm 2 m/S 745 mmHg 45%
    05:00 -8°C° 0 mm 2 m/S 745 mmHg 47%
    06:00 -9°C° 0 mm 2 m/S 745 mmHg 48%
    07:00 -9°C° 0 mm 2 m/S 745 mmHg 49%
    08:00 -9°C° 0 mm 3 m/S 745 mmHg 47%
    09:00 -8°C° 0 mm 3 m/S 746 mmHg 44%
    10:00 -8°C° 0 mm 4 m/S 746 mmHg 41%
    11:00 -7°C° 0 mm 4 m/S 745 mmHg 38%
    12:00 -5°C° 0 mm 4 m/S 745 mmHg 35%
    13:00 -4°C° 0 mm 4 m/S 744 mmHg 32%
    14:00 -4°C° 0 mm 4 m/S 744 mmHg 31%
    15:00 -3°C° 0 mm 4 m/S 744 mmHg 31%
    16:00 -3°C° 0 mm 4 m/S 743 mmHg 30%
    17:00 -4°C° 0 mm 4 m/S 743 mmHg 33%
    18:00 -5°C° 0 mm 4 m/S 743 mmHg 35%
    19:00 -5°C° 0 mm 4 m/S 743 mmHg 37%
    20:00 -5°C° 0 mm 4 m/S 743 mmHg 38%
    21:00 -5°C° 0 mm 4 m/S 742 mmHg 39%
    22:00 -6°C° 0 mm 5 m/S 742 mmHg 39%
    23:00 -6°C° 0 mm 5 m/S 741 mmHg 40%

    1 März, Donnerstag

    Zeit Temperatur Niederschläge Wind Luftdruck Luftfeuchtigkeit
    00:00 -6°C° 0 mm 5 m/S 741 mmHg 40%
    01:00 -6°C° 0 mm 5 m/S 740 mmHg 41%
    02:00 -6°C° 0 mm 5 m/S 739 mmHg 43%
    03:00 -6°C° 0 mm 5 m/S 738 mmHg 46%
    04:00 -6°C° 0 mm 5 m/S 738 mmHg 48%
    05:00 -6°C° 0 mm 5 m/S 737 mmHg 50%
    06:00 -6°C° 0 mm 5 m/S 736 mmHg 52%
    07:00 -6°C° 0 mm 5 m/S 736 mmHg 54%
    08:00 -6°C° 0,2 mm 5 m/S 735 mmHg 56%
    09:00 -6°C° 0,2 mm 5 m/S 735 mmHg 58%
    10:00 -6°C° 0,2 mm 5 m/S 734 mmHg 60%
    11:00 -5°C° 0,2 mm 5 m/S 734 mmHg 62%
    12:00 -5°C° 0,2 mm 5 m/S 733 mmHg 64%
    13:00 -4°C° 0,2 mm 5 m/S 733 mmHg 66%
    14:00 -4°C° 0,3 mm 5 m/S 732 mmHg 68%
    15:00 -4°C° 0,3 mm 5 m/S 731 mmHg 71%
    16:00 -2°C° 0,3 mm 5 m/S 731 mmHg 74%
    17:00 -2°C° 0,1 mm 5 m/S 730 mmHg 73%
    18:00 -2°C° 0,1 mm 4 m/S 730 mmHg 72%
    19:00 -2°C° 0,1 mm 4 m/S 730 mmHg 71%
    20:00 -2°C° 0 mm 4 m/S 729 mmHg 72%
    21:00 -1°C° 0 mm 4 m/S 729 mmHg 72%
    22:00 -1°C° 0 mm 4 m/S 728 mmHg 72%
    23:00 0°C° 0 mm 3 m/S 727 mmHg 74%
    Mehr zeigen